STARLINK-3273, 50191

Orbit data source: Space-Track

STARLINK-3273, 50191 is a payload satellite owned by SpaceX/Seattle (US) in LEO that was launched on Sat, 18 Dec 2021 UTC via an FALCON 9 launch vehicle from the Air Force Western Test Range (AFWTR). Payload-class satellites include a variety of spacecraft equipped with specific instruments for various scientific and technological missions. These include communications satellites like Starlink; space stations such as the ISS; scientific satellites like the Hubble; Earth observation satellites from companies like Planet Labs, Umbra, and HawkEye 360; GPS; miniature CubeSats for education and research; and military/defense satellites.

Loading next visibility...
Identifier
50191, 2021-125AM
Orbit
LEO
Country
Flag of USUS
Related business
Manufacturer
SpaceX/Seattle
Mission
Operational Commercial Communications
Bus & Motor
STARLINK, Unknown motor
Mass
290 kg wet, ~270 kg dry
Launch date (UTC)
2021-12-18 (5 years ago)
Launch vehicle
FALCON 9
Launch site
Air Force Western Test Range (AFWTR)
Object type
Payload
Rocket body
Debris
Shape & HBR
Box + 1 Pan, 10.1 m
Radar Cross Section
13.562 m², Large (>1 m²)

Expand to show TLE details & history
Last TLE update: 19 hours ago

TLE from 19 hours ago
0 STARLINK-3273
1 50191U 21125AM  26169.39775250 -.00000224  00000-0  40252-5 0  9996
2 50191  53.1605 166.9211 0001268  89.4682 270.6455 15.08838125251657
Epoch: 2026-06-18T09:32Z
TLE epoch observation values (Epoch: 2026-06-18T09:32:45.816Z)
Latitude
0.00003°
Longitude
117.08856°
Altitude
540.631 km
Speed
7.593 km/s
True Right ascension
11h 07m 41s
True Declination
0° 00' 00"
Sunlit
Object was in daylight at epoch
Visualization orbit readout
Latitude
Unknown
Longitude
Unknown
Altitude
Unknown
Speed
Unknown
Apparent Right ascension
Unknown
Apparent Declination
Unknown
Sunlit
N/A
Visualization observer readout
Local Sidereal Time
15:35:51
Azimuth
Unknown
Elevation
Unknown
Doppler factor
Unknown
Orbital elements
Apogee altitude
540.88 km
Perigee altitude
539.126 km
Semi-major axis
6,918.14 km
Eccentricity
0.00013
Inclination
53.1605°
RAAN
166.9211°
Arg. of periapsis
89.4682°
True anomaly
270.63097°
Mean anomaly
270.6455°
Eccentric anomaly
270.63824°
Mean motion
3.77189 °/min
Orbital period
95.44 mins
BSTAR
0.0000040252
Loading maneuver chart data...
Computing Atmospheric mass density...

Documentation

Showing up to 5 results
|